Location: Oberkirch
(48.5323°N, 8.0787°E)
Time: 20:46:11
(UTC+00:00)

Tiros 1 - Pass Details

Date: 23 February 2026
Orbit: 618 x 649 km, 48.4° (Epoch: 7 March)

Event Time Altitude Azimuth Distance (km) Brightness Sun altitude
Rises 05:05:42 0° 197° (SSW) 2,921 10.3 -13.2°
Reaches altitude 10° 05:08:48 10° 175° (S) 2,010 9.8 -12.7°
Maximum altitude 05:11:35 16° 138° (SE) 1,655 9.8 -12.2°
Drops below altitude 10° 05:14:20 10° 101° (E) 2,005 11.2 -11.8°
Sets 05:17:26 0° 80° (E) 2,909 12.4 -11.2°
